Showing default

GEESAT 6-07, 65719

Orbit data source: Space-Track

GEESAT 6-07, 65719 is a payload satellite owned by GeeSpace (CN) in LEO that was launched on Wed, 24 Sep 2025 UTC via a JIELONG-3 launch vehicle from the Yellow Sea Launch Area, China (YSLA). Payload-class satellites include a variety of spacecraft equipped with specific instruments for various scientific and technological missions. These include communications satellites like Starlink; space stations such as the ISS; scientific satellites like the Hubble; Earth observation satellites from companies like Planet Labs, Umbra, and HawkEye 360; GPS; miniature CubeSats for education and research; and military/defense satellites.

Loading next visibility...
Identifier
65719, 2025-214H
Orbit
LEO
Country
Flag of CNCN / PRC
Related business
Manufacturer
GWCG
Mission
Operational Commercial Navigation
Bus & Motor
GPS100, Unknown motor
Mass
130 kg wet, 130 kg dry
Launch date (UTC)
2025-09-24 (9 months ago)
Launch vehicle
JIELONG-3
Launch site
Yellow Sea Launch Area, China (YSLA)
Object type
Payload
Rocket body
Debris
Shape & HBR
Box + 2 Pan, 1.1 m
Radar Cross Section
0.833 m², Large (>1 m²)

Expand to show TLE details & history
Last TLE update: 13 hours ago

TLE from 13 hours ago
0 GEESAT 6-07
1 65719U 25214H   26171.37810297  .00001205  00000-0  17265-3 0  9998
2 65719  49.9817 293.1398 0010096 245.8756 114.1127 14.83385491 39999
Epoch: 2026-06-20T09:04Z
TLE epoch observation values (Epoch: 2026-06-20T09:04:28.096Z)
Latitude
0.00002°
Longitude
-111.57084°
Altitude
622.092 km
Speed
7.547 km/s
True Right ascension
19h 32m 33s
True Declination
0° 00' 00"
Sunlit
Object was in full shadow at epoch
Visualization orbit readout
Latitude
Unknown
Longitude
Unknown
Altitude
Unknown
Speed
Unknown
Apparent Right ascension
Unknown
Apparent Declination
Unknown
Sunlit
N/A
Visualization observer readout
Local Sidereal Time
08:32:58
Azimuth
Unknown
Elevation
Unknown
Doppler factor
Unknown
Orbital elements
Apogee altitude
626.484 km
Perigee altitude
612.355 km
Semi-major axis
6,997.556 km
Eccentricity
0.00101
Inclination
49.9817°
RAAN
293.1398°
Arg. of periapsis
245.8756°
True anomaly
114.21824°
Mean anomaly
114.1127°
Eccentric anomaly
114.16548°
Mean motion
3.70786 °/min
Orbital period
97.09 mins
BSTAR
0.00017265
Loading maneuver chart data...
Computing Atmospheric mass density...
Loading historical data...
Loading historical data...
Loading historical data...
Loading historical data...
Loading historical data...
Loading historical data...
Loading historical data...

Documentation

Showing up to 5 results
|